This demonstration page uses our WeatherBlox Daily Observations layout. Learn more.

Left ArrowRight Arrow

34.16533, -84.80231

Hourly Observations for May 12, 2017

Temp ( °F °C ) Dew Point ( °F °C ) Humidity (%) Winds ( mph kmh ) Pressure ( in mb ) Visibility ( mi km ) Precip ( " mm )
12:53 am 00:53 Clear 69 20.6 64 17.8 84 84 Calm 29.87 1012 10 16 0.00 0.00
1:53 am 01:53 Clear 68 20 64 17.8 87 87 VRB 3 6 29.88 1012 10 16 0.00 0.00
2:53 am 02:53 Partly Cloudy 67 19.4 64 17.8 91 91 Calm 29.86 1011 10 16 0.00 0.00
3:53 am 03:53 Clear 64 17.8 64 17.8 100 100 Calm 29.85 1011 10 16 0.00 0.00
4:53 am 04:53 Clear 61 16.1 61 16.1 100 100 SSE 3 6 29.83 1010 7 11 0.00 0.00
5:53 am 05:53 Clear 60 15.6 60 15.6 100 100 Calm 29.82 1010 7 11 0.00 0.00
6:53 am 06:53 Sunny with Mist and Fog 59 15 59 15 100 100 Calm 29.82 1010 4 6 0.00 0.00
7:53 am 07:53 Sunny with Mist and Fog 63 17.2 63 17.2 100 100 Calm 29.83 1010 6 10 0.00 0.00
8:53 am 08:53 Partly Cloudy 66 18.9 66 18.9 100 100 SSW 3 6 29.83 1010 8 13 0.00 0.00
9:53 am 09:53 Sunny 69 20.6 66 18.9 90 90 VRB 3 6 29.82 1010 9 14 0.00 0.00
10:53 am 10:53 Mostly Sunny 72 22.2 66 18.9 82 82 VRB 5 7 29.81 1009 10 16 0.00 0.00
11:53 am 11:53 Mostly Sunny 76 24.4 67 19.4 74 74 VRB 7 11 29.81 1010 10 16 0.00 0.00
12:53 pm 12:53 Partly Cloudy 78 25.6 64 17.8 62 62 VRB 3 6 29.80 1009 10 16 0.00 0.00
1:53 pm 13:53 Mostly Sunny 80 26.7 62 16.7 54 54 VRB 7 11 29.77 1008 10 16 0.00 0.00
2:53 pm 14:53 Sunny 78 25.6 61 16.1 56 56 VRB 6 9 29.75 1008 10 16 0.00 0.00
3:53 pm 15:53 Sunny 77 25 64 17.8 64 64 Calm 29.74 1007 10 16 0.00 0.00
4:19 pm 16:19 Mostly Cloudy with Nearby Thunderstorms 76 24.4 64 17.8 67 67 Calm 29.74 1007 10 16 0.00 0.00
4:30 pm 16:30 Cloudy with Thunderstorms 74 23.3 65 18.3 74 74 VRB 5 7 29.77 1008 6 10 0.01 0.25
4:33 pm 16:33 Cloudy with Thunderstorms 72 22.2 65 18.3 79 79 VRB 7 11 29.80 1009 2 2 0.10 2.54
4:49 pm 16:49 Cloudy with Thunderstorms 66 19 64 18 94 94 ESE 3 6 29.80 1009 3 5 0.27 6.86
4:53 pm 16:53 Cloudy with Thunderstorms 66 18.9 64 17.8 93 93 VRB 3 6 29.76 1008 8 13 0.27 6.86
5:20 pm 17:20 Cloudy with Nearby Thunderstorms 66 18.9 66 18.9 100 100 WSW 3 6 29.80 1009 9 14 0.00 0.03
5:32 pm 17:32 Cloudy with Rain 65 18.3 65 18.3 100 100 S 6 9 29.80 1009 3 4 0.03 0.76
5:49 pm 17:49 Cloudy 64 18 64 18 100 100 Calm 29.80 1009 8 13 0.07 1.78
5:53 pm 17:53 Cloudy with Light Rain 65 18.3 65 18.3 100 100 Calm 29.77 1008 7 11 0.08 2.03
6:53 pm 18:53 Sunny 68 20 68 20 100 100 Calm 29.76 1008 7 11 0.00 0.03
7:53 pm 19:53 Mostly Cloudy 67 19.4 67 19.4 100 100 Calm 29.75 1008 7 11 0.00 0.00
8:53 pm 20:53 Mostly Cloudy 66 18.9 66 18.9 100 100 Calm 29.75 1008 7 11 0.00 0.00
9:53 pm 21:53 Mostly Cloudy with Mist and Fog 64 17.8 64 17.8 100 100 Calm 29.75 1008 4 6 0.00 0.00
10:53 pm 22:53 Cloudy 65 18.3 65 18.3 100 100 SSE 6 9 29.76 1008 8 13 0.00 0.00
11:53 pm 23:53 Partly Cloudy with Mist and Fog 64 17.8 64 17.8 100 100 SE 5 7 29.75 1008 6 10 0.00 0.00

Powered by AerisWeather